Location: Starhoo Observatory
(41.8578°N, 70.9669°W)
Time: 23:17:15
(UTC-05:00)

ISS - Visible Passes

Search period start: 21 December 2014 00:00
Search period end: 31 December 2014 00:00
Orbit: 404 x 414 km, 51.6° (Epoch: 21 December)

Date Brightness Start Highest point End Pass type
(mag) Time Alt. Az. Time Alt. Az. Time Alt. Az.
21 Dec -1.7 17:55:55 10° NW 17:58:00 23° N 17:58:00 23° N visible
22 Dec -1.7 17:05:14 10° NW 17:07:44 20° NNE 17:09:31 14° NE visible
22 Dec -0.7 18:41:26 10° NW 18:42:17 17° NW 18:42:17 17° NW visible
23 Dec -3.0 17:50:40 10° NW 17:53:51 45° NNE 17:53:54 45° NNE visible
24 Dec -2.3 16:59:53 10° NW 17:02:51 30° NNE 17:05:41 11° E visible
24 Dec -1.4 18:36:23 10° WNW 18:38:28 30° W 18:38:28 30° W visible
25 Dec -3.3 17:45:21 10° WNW 17:48:38 77° SW 17:50:30 23° SE visible
26 Dec -3.3 16:54:24 10° NW 16:57:40 59° NNE 17:00:54 10° ESE visible
26 Dec -0.4 18:31:47 10° W 18:33:55 16° SW 18:35:43 11° SSW visible
27 Dec -1.3 17:40:10 10° WNW 17:43:05 29° SW 17:45:58 10° SSE visible
28 Dec -2.5 16:48:55 10° WNW 16:52:08 55° SW 16:55:20 10° SE visible
29 Dec 0.1 17:35:52 10° WSW 17:37:12 12° SW 17:38:32 10° SSW visible
